Lid_Strength_Index
4 3 2 2 2 1 1 1 1 1 1 3 1 1 1 1 1 1 1 1 2 2 1 0 -0 1 3 4 4 4 4 4
4 3 2 2 2 2 2 2 1 1 1 2 2 2 2 2 2 1 1 1 0 1 1 0 1 2 3 4 5 5 7 6
4 3 3 3 2 2 2 2 1 1 1 1 1 1 1 1 1 1 0 0 0 0 1 1 2 2 4 5 5 7 8 6
5 4 4 3 3 2 2 2 1 1 1 1 2 2 2 1 2 1 1 0 0 1 1 1 2 2 4 5 6 7 7 8
5 4 4 4 3 2 2 1 1 1 1 1 2 2 3 2 1 1 1 1 1 1 1 2 2 3 4 4 5 6 7 9
5 5 4 3 3 3 2 2 1 1 1 1 2 2 2 2 1 2 1 2 2 2 2 3 3 3 3 4 5 6 6 7
5 4 4 3 3 3 2 3 2 1 2 1 2 2 3 2 2 2 1 2 2 2 2 2 3 3 3 4 5 6 6 7
5 5 5 4 3 3 3 3 3 2 2 2 2 2 2 2 2 2 2 2 4 3 3 4 4 3 3 4 5 6 7 7
5 5 5 4 4 4 3 3 3 2 2 2 2 2 2 1 1 2 2 2 3 4 4 4 4 4 4 4 4 5 6 7
5 5 4 4 4 4 3 3 3 2 2 2 2 2 2 2 2 2 2 3 4 4 4 5 5 5 5 5 5 6 6 7
5 5 4 4 3 4 4 3 3 2 2 2 2 2 1 2 2 2 3 3 4 4 5 5 6 5 6 6 6 6 6 8
6 6 5 4 4 4 3 3 3 3 2 2 2 2 2 2 2 2 3 4 4 4 4 5 5 6 7 7 6 6 6 6
6 6 6 5 4 4 4 3 3 2 2 3 3 3 3 2 3 3 3 4 4 4 4 6 6 7 7 6 6 6 6 7
7 5 5 5 5 5 4 3 3 3 3 3 3 4 3 4 5 5 5 5 5 5 5 6 6 7 6 6 7 7 6 6
12 10 7 5 5 5 4 5 5 4 3 2 3 4 4 5 4 4 4 5 5 6 5 5 6 6 6 6 7 7 7 7
11 10 9 6 6 5 5 5 5 5 4 5 4 4 4 4 4 4 5 4 5 5 6 6 6 7 7 7 7 7 8 9
11 11 9 7 6 6 6 6 6 5 5 5 4 4 6 5 4 4 4 5 5 6 6 6 7 6 10 10 8 8 9 10
11 11 9 7 6 6 6 6 6 6 6 6 5 5 5 5 6 5 5 5 6 6 6 6 7 8 12 11 10 7 8 10
11 10 10 10 10 10 7 6 6 6 6 6 7 6 7 7 6 6 5 5 6 7 7 7 8 9 12 11 12 9 9 11